Regional Weather Roundup
Issued by NWS Wakefield, VA

Home | Current Version | Previous Version | Graphics & Text | Print | Product List | Glossary On
Versions: 1 2 3 4 5 6 7 8 9 10 11 12 13 14 15 16 17 18 19 20 21 22 23 24 25 26 27 28 29 30 31 32 33 34 35 36 37 38 39 40 41 42 43 44 45 46 47 48 49 50
000
ASUS41 KAKQ 130315
RWRAKQ

REGIONAL WEATHER ROUNDUP
NATIONAL WEATHER SERVICE WAKEFIELD VA
1000 PM EST FRI FEB 12 2016

Note: "fair" indicates few or no clouds below 12,000 feet with no
significant weather and/or obstructions to visibility. * = Denotes
station may not report precipitation (e.g., rain,snow,etc.),
thunder or fog.

VAZ042-051-052>054-056-130400-
NORTHERN VIRGINIA

CITY           SKY/WX    TMP DP  RH WIND       PRES   REMARKS
WASH NATIONAL  CLOUDY    29  12  49 SW6       30.03R
DULLES         FLURRIES  26  17  68 NW12      30.01R WCI  16
FORT BELVOIR   MOCLDY    27  14  59 CALM      30.02R
QUANTICO       CLOUDY    30  14  51 NW3       30.03R
FREDERICKSBRG* CLOUDY    28  16  61 CALM      30.01R
STAFFORD*      CLOUDY    26  15  65 CALM      30.04S
WARRENTON      CLOUDY    29  20  68 NW7       30.00R
CULPEPER*      CLOUDY    27  15  58 CALM      30.01S
MANASSAS*      CLOUDY    28  18  64 NW3       30.02R
LEESBURG*      CLOUDY    28  27  93 CALM      30.01S
WINCHESTER     CLOUDY    27  19  74 W13       29.97F WCI  16
FRONT ROYAL*   CLOUDY    25  21  86 CALM      29.98S
LURAY*         CLOUDY    23  21  93 CALM      29.96F
$$

VAZ048-049-060>072-079>083-130400-
CENTRAL AND SOUTH CENTRAL VIRGINIA

CITY           SKY/WX    TMP DP  RH WIND       PRES   REMARKS
RICHMOND       CLOUDY    26  19  74 CALM      30.00S
CHESTERFIELD*  CLOUDY    27   9  46 CALM      30.01S
PETERSBURG*    CLOUDY    28  19  70 CALM      30.01R
HANOVER        CLOUDY    26  17  68 CALM      30.02R
TAPPAHANNOCK*  CLOUDY    26  19  77 CALM      30.01F
QUINTON*       CLOUDY    25  21  84 CALM      30.01R
CHARLOTTSVILLE CLOUDY    29  18  63 N3        29.97R
GORDONSVILLE*  CLOUDY    28  20  72 CALM      29.99R
ORANGE*        FLURRIES  30  21  69 CALM      30.01R
LOUISA*        CLOUDY    28  19  69 CALM      29.97S
BUMPASS*       CLOUDY    27  18  67 CALM      29.99S
FARMVILLE*     CLOUDY    30  20  66 SW3       29.99R
CREWE*         CLOUDY    28  20  70 W5        29.99S
FORT PICKETT*  CLOUDY    28  19  71 SW6       29.99S
CHASE CITY*    CLOUDY    28  20  71 CALM      30.01S
CLARKSVILLE*   CLOUDY    30  19  64 SW3       30.01S
SOUTH HILL*    CLOUDY    26  20  79 CALM      30.07S
LAWRENCEVILLE* CLOUDY    26  22  86 SW5       30.01S
EMPORIA*       CLOUDY    27  21  80 CALM      30.04S
$$

VAZ088>098-130400-
SOUTHEAST VIRGINIA

CITY           SKY/WX    TMP DP  RH WIND       PRES   REMARKS
NORFOLK        MOCLDY    28  22  78 W3        30.01R
VIRGINIA BEACH MOCLDY    30  22  72 W7        30.01R
NORFOLK NAVAL  MOCLDY    28  22  78 W8        30.03S
WEST POINT*    MOCLDY    26  21  81 CALM      30.03S
SALUDA*        FAIR      24  21  91 CALM      30.02R
NEWPORT NEWS   FAIR      26  22  84 W6        30.02S
LANGLEY AFB    FAIR      25  22  87 W5        30.01R
FORT EUSTIS    FAIR      26  24  92 W3        30.00S
WILLIAMSBURG*  FAIR      28  25  86 CALM      30.03S
HR EXEC AP*    FAIR      23  19  86 CALM      30.03F
FRANKLIN*      CLOUDY    27  22  82 CALM      30.03S
US460-WAKEFLD  FAIR      23  19  85 CALM      30.02S
$$

VAZ020-022-025-037-045-130400-
WEST CENTRAL AND SOUTHWEST VIRGINIA

CITY           SKY/WX    TMP DP  RH WIND       PRES   REMARKS
STAUNTON*      CLOUDY    33  13  44 W10       29.97S WCI  25
WAYNESBORO*    CLOUDY    29  10  46 W8G18     29.93S
HOT SPRINGS VA MIX PCPN  19  12  77 W22G32    29.78S WCI   2
LYNCHBURG      CLOUDY    30  19  63 W6        29.99R
DANVILLE       CLOUDY    33  18  53 W3        30.02R
SOUTH BOSTON*  CLOUDY    29  21  72 CALM      30.02R
MARTINSVILLE   CLOUDY    34  17  48 NW15G24   30.02S WCI  24
ROANOKE        CLOUDY    32  17  54 W10G18    30.00S WCI  24
BLACKSBURG     FLURRIES  29  19  68 W14G26    29.98R WCI  18
DUBLIN*        FLURRIES  29  20  68 W14G30    30.00R WCI  19
MARION*        LGT SNOW  27  19  71 W28G37    30.00R WCI  12
HILLSVILLE*    CLOUDY    27  19  73 W15G31    29.94R WCI  15
RICHLANDS*     FLURRIES  25  18  76 W6        30.03R
WISE*          CLOUDY    27  18  69 W12G18    30.07R WCI  16
ABINGDON*      LGT SNOW  30  23  74 W9G18     30.08R
$$

MDZ021>025-VAZ099-100-130400-
SOUTHERN MARYLAND AND THE DELMARVA PENINSULA

CITY           SKY/WX    TMP DP  RH WIND       PRES   REMARKS
PATUXENT RIVER CLOUDY    26  18  71 SW3       30.01S
BAY BRIDGE APT   N/A     28  18  64 CALM      30.01S
LEONARDTOWN      N/A     27  19  74 CALM      30.02R
DOVER          CLOUDY    24  21  90 W2        29.99F
GEORGETOWN     CLOUDY    23  20  88 CALM      30.01S
EASTON         CLOUDY    27  16  64 CALM      30.04S
CAMBRIDGE      CLOUDY    27  18  69 CALM      30.00S
SALISBURY      CLOUDY    24  18  77 CALM      30.00F
OCEAN CITY     CLOUDY    23  20  88 CALM      30.01S
WALLOPS ISLAND CLOUDY    25  20  81 N3        30.02S
ACCOMACK*      CLOUDY    27  21  80 CALM      30.01S
$$

NCZ012>017-030>032-130400-
NORTH CENTRAL AND EASTERN NORTH CAROLINA

CITY           SKY/WX    TMP DP  RH WIND       PRES   REMARKS
ROANOKE RAPIDS FAIR      27  23  86 SW5       30.03S
RALEIGH        MOCLDY    31  22  69 SW5       30.04S
ELIZABETH CITY CLOUDY    27  25  92 W7        30.02S
AHOSKIE*       NOT AVBL
EDENTON*       CLOUDY    31  29  92 W6        30.04S
CURRITUCK*     CLOUDY    28  27  96 W5        30.02S
KILL DEVIL HLS CLOUDY    32  31  96 W5        29.99S
MANTEO         CLOUDY    32  32 100 NW5       30.00F
CAPE HATTERAS  CLOUDY    36  34  92 NW12      30.01R
TARBORO*       MOCLDY    29  26  86 SW3       30.06S
GOLDSBORO      CLOUDY    30  30 100 W6        30.04F
WASHINGTON     CLOUDY    29  27  90 W6        30.05S
GREENVILLE     CLOUDY    30  28  93 W5        30.07F
NEW BERN       CLOUDY    32  29  88 NW8       30.07R
WILMINGTON     PTCLDY    33  30  88 NW7       30.07S
$$

VAZ048-130400-
ELSEWHERE

CITY           SKY/WX    TMP DP  RH WIND       PRES   REMARKS
HARRISBURG PA  LGT SNOW  21  17  84 W3        29.97F
BALTIMORE      CLOUDY    24  15  68 W5        30.00S
ANNAPOLIS      CLOUDY    27  18  69 CALM      30.01S
ANDREWS AFB    CLOUDY    26  12  55 W5        29.99R
PHILADELPHIA   CLOUDY    23  16  74 SW7       30.00
HENDERSON NC   CLOUDY    30  19  64 SW5       30.01S
GREENSBORO     CLOUDY    33  20  58 W5        30.00R
ROCKY MOUNT    CLOUDY    29  25  85 SW6       30.05F
$$

VAZ100-130400-
MARINE

STATION/POSITION TIME  TEMP    WIND        PRES    WAVE   SWELL
                       AIR SEA DIR/SP/G            HT/PER HT/PER
                 (UTC) (F)     (DEG/KT/KT) (MB)    (FT/S) (FT/S)
BRANDYWINE LGT   0200   23                 1016.0F
CAPE MAY NJ      0200   22 38              1015.8F
LEWES DE         0200   23 38              1016.1F
15NM E FENWICK I 0250   26 42              1015.8F   1/ 8
OCEAN-CITY-INLET 0200   24 40              1015.4F
WACHAPREAGUE VA  0200   25 36              1016.4R
THOMAS POINT MD  0300   28 36  260/  7/  9 1017.0R
GOOSES REEF MD   0300   28 38  220/  6/  8 1017.2R   0
COVE POINT MD    0200   26                 1016.7F
SOLOMONS ISLAND  0200   28 39                N/A
BISHOPS HEAD MD  0200   29 35              1015.3F
PINEY POINT MD   0200          230/  6/  7   N/A
POTOMAC MD       0300   28 38  250/  6/  8 1015.0F   1
CAMBRIDGE MD     0200   26 37              1015.5F
LEWISETTA VA     0200   27 37              1016.0F
RAPPAHANNOCK LGT 0200                      1016.3R
STINGRAY PT      0300   28 40  270/  8/ 10 1016.3R   0
YORK RVR RNG VA  0200   29                 1015.5R
YORKTOWN VA      0200   28 40              1016.0R
JAMESTOWN VA     0300   27 41  250/  6/  6   N/A     0
DOMINION TERM VA 0200   28                 1016.2S
KIPTOPEKE VA     0200      39                N/A
CHES BAY BRIDGE  0200   29 40              1015.6R
CAPE HENRY VA    0200   28                   N/A
CHESAPEAKE LGHT  0200   29     280/  5/  6 1016.3F
WILLOUBY STN VA  0200   28                 1016.8S
CAPE HENRY BUOY  0228      41                N/A     1/ 7
1ST LANDING BUOY 0300      40                N/A     1/ 3
CAPE CHARLES BUO 0226      42                N/A     1/ 7   2/ 7
OFFSHORE WE BUOY 0251      44                N/A     2/ 6   2/ 6
64NM E OF VA BCH 0250   36 48  330/ 12/ 14 1014.8R   2/ 9   2/ 9
DUCK PIER NC     0200   31                 1015.5R
44100 DUCK FRF   0224      45                N/A     2/ 7
44056 DUCK FRF   0211      42                N/A     2/ 7
OREGON INLET NC  0200   35 43              1015.5R
HATTERAS NC      0200   37 45              1014.9R
DIAMOND SHLS NC  0250   44 71  330/ 16/ 19 1014.8R   5/ 9   2/ 9
$$



USA.gov is the U.S. government's official web portal to all federal, state and local government web resources and services.